Location: Taukkyan
(23.1052°N, 94.0030°E)
Time: 23:03:28
(UTC+00:00)

Resurs 1-4 Rocket - Pass Details

Date: 06 July 2020
Orbit: 800 x 814 km, 98.6° (Epoch: 05 August)

Event Time Altitude Azimuth Distance (km) Brightness Sun altitude
Rises 19:57:24 0° 355° (N) 3,332 5.9 -34.7°
Reaches altitude 10° 20:00:05 10° 343° (NNW) 2,397 4.9 -34.3°
Enters shadow 20:01:39 17° 330° (NNW) 1,935 4.2 -34.1°
